When you browse on this site, cookies collect data to enhance your experience and personalize the content and advertising you see.
Visit our Privacy Policy to learn more. By continuing to use the site, you agree to this use of cookies and data.
  • In Netherlands
  • List of Countries
  • For 7 days
  • Water Temperature
  • Weather Map
  • Weather Widgets
  • user-avatar
    Login

    Hourly Weather Benguela

    Today, 28 February, Friday

    Time Temperature Precipitation Wind Pressure Humidity
    00:00 +28°C° 0 mm 2 mps 758 mmHg 79%
    01:00 +28°C° 0 mm 2 mps 758 mmHg 80%
    02:00 +27°C° 0 mm 2 mps 757 mmHg 81%
    03:00 +27°C° 0 mm 2 mps 757 mmHg 82%
    04:00 +27°C° 0 mm 2 mps 757 mmHg 83%
    05:00 +27°C° 0 mm 1 mps 757 mmHg 83%
    06:00 +27°C° 0 mm 1 mps 758 mmHg 83%
    07:00 +25°C° 0 mm 0 mps 758 mmHg 83%
    08:00 +28°C° 0 mm 1 mps 758 mmHg 78%
    09:00 +29°C° 0 mm 1 mps 758 mmHg 73%
    10:00 +30°C° 0 mm 1 mps 759 mmHg 67%
    11:00 +31°C° 0 mm 2 mps 758 mmHg 62%
    12:00 +33°C° 0 mm 3 mps 758 mmHg 56%
    13:00 +34°C° 0 mm 3 mps 758 mmHg 50%
    14:00 +34°C° 0 mm 3 mps 757 mmHg 52%
    15:00 +33°C° 0 mm 4 mps 756 mmHg 54%
    16:00 +33°C° 0 mm 4 mps 756 mmHg 57%
    17:00 +31°C° 0 mm 3 mps 756 mmHg 61%
    18:00 +30°C° 0 mm 3 mps 756 mmHg 65%
    19:00 +29°C° 0 mm 3 mps 757 mmHg 70%
    20:00 +28°C° 0 mm 2 mps 757 mmHg 73%
    21:00 +28°C° 0 mm 2 mps 758 mmHg 75%
    22:00 +27°C° 0 mm 2 mps 758 mmHg 78%
    23:00 +27°C° 0 mm 2 mps 758 mmHg 79%

    Tomorrow, 29 February, Saturday

    Time Temperature Precipitation Wind Pressure Humidity
    00:00 +27°C° 0 mm 2 mps 758 mmHg 81%
    01:00 +26°C° 0 mm 2 mps 758 mmHg 82%
    02:00 +26°C° 0 mm 1 mps 758 mmHg 84%
    03:00 +26°C° 0 mm 1 mps 758 mmHg 85%
    04:00 +26°C° 0 mm 1 mps 757 mmHg 86%
    05:00 +26°C° 0 mm 1 mps 758 mmHg 84%
    06:00 +26°C° 0 mm 1 mps 758 mmHg 83%
    07:00 +26°C° 0 mm 1 mps 758 mmHg 81%
    08:00 +28°C° 0 mm 1 mps 759 mmHg 72%
    09:00 +30°C° 0 mm 1 mps 759 mmHg 63%
    10:00 +31°C° 0 mm 1 mps 759 mmHg 55%
    11:00 +32°C° 0 mm 2 mps 759 mmHg 51%
    12:00 +34°C° 0 mm 3 mps 758 mmHg 48%
    13:00 +35°C° 0 mm 4 mps 758 mmHg 44%
    14:00 +35°C° 0 mm 4 mps 758 mmHg 48%
    15:00 +34°C° 0 mm 4 mps 757 mmHg 51%
    16:00 +33°C° 0 mm 4 mps 757 mmHg 55%
    17:00 +31°C° 0 mm 3 mps 758 mmHg 60%
    18:00 +30°C° 0 mm 3 mps 758 mmHg 66%
    19:00 +28°C° 0 mm 2 mps 759 mmHg 71%
    20:00 +28°C° 0 mm 2 mps 759 mmHg 73%
    21:00 +28°C° 0 mm 2 mps 760 mmHg 75%
    22:00 +27°C° 0 mm 2 mps 761 mmHg 77%
    23:00 +27°C° 0 mm 2 mps 761 mmHg 79%

    Day after tomorrow, 1 March, Sunday

    Time Temperature Precipitation Wind Pressure Humidity
    00:00 +27°C° 0 mm 2 mps 760 mmHg 80%
    01:00 +26°C° 0 mm 1 mps 760 mmHg 81%
    02:00 +26°C° 0 mm 1 mps 760 mmHg 82%
    03:00 +26°C° 0 mm 1 mps 760 mmHg 83%
    04:00 +26°C° 0 mm 1 mps 759 mmHg 84%
    05:00 +26°C° 0 mm 1 mps 760 mmHg 82%
    06:00 +26°C° 0 mm 2 mps 760 mmHg 81%
    07:00 +26°C° 0 mm 2 mps 760 mmHg 79%
    08:00 +28°C° 0 mm 2 mps 760 mmHg 69%
    09:00 +30°C° 0 mm 2 mps 760 mmHg 59%
    10:00 +33°C° 0 mm 1 mps 760 mmHg 50%
    11:00 +35°C° 0 mm 2 mps 760 mmHg 47%
    12:00 +35°C° 0 mm 3 mps 759 mmHg 44%
    13:00 +36°C° 0 mm 4 mps 759 mmHg 42%
    14:00 +36°C° 0 mm 4 mps 758 mmHg 45%
    15:00 +35°C° 0 mm 5 mps 757 mmHg 48%
    16:00 +35°C° 0 mm 5 mps 757 mmHg 51%
    17:00 +33°C° 0 mm 5 mps 757 mmHg 56%
    18:00 +32°C° 0 mm 4 mps 758 mmHg 62%
    19:00 +30°C° 0 mm 4 mps 758 mmHg 68%
    20:00 +29°C° 0 mm 3 mps 758 mmHg 68%
    21:00 +29°C° 0 mm 3 mps 759 mmHg 69%
    22:00 +29°C° 0 mm 2 mps 759 mmHg 70%
    23:00 +29°C° 0 mm 2 mps 759 mmHg 70%

    2 March, Monday

    Time Temperature Precipitation Wind Pressure Humidity
    00:00 +28°C° 0 mm 2 mps 759 mmHg 71%
    01:00 +28°C° 0 mm 1 mps 758 mmHg 72%
    02:00 +28°C° 0 mm 1 mps 758 mmHg 72%
    03:00 +28°C° 0 mm 1 mps 758 mmHg 72%
    04:00 +28°C° 0 mm 1 mps 757 mmHg 72%
    05:00 +28°C° 0 mm 1 mps 758 mmHg 71%
    06:00 +28°C° 0 mm 1 mps 758 mmHg 69%
    07:00 +28°C° 0 mm 2 mps 759 mmHg 68%
    08:00 +31°C° 0 mm 1 mps 759 mmHg 58%
    09:00 +33°C° 0 mm 1 mps 759 mmHg 48%
    10:00 +35°C° 0 mm 1 mps 759 mmHg 38%
    11:00 +38°C° 0 mm 2 mps 758 mmHg 34%
    12:00 +39°C° 0 mm 3 mps 758 mmHg 29%
    13:00 +40°C° 0 mm 3 mps 757 mmHg 25%
    14:00 +41°C° 0 mm 4 mps 757 mmHg 27%
    15:00 +40°C° 0 mm 5 mps 756 mmHg 30%
    16:00 +40°C° 0 mm 5 mps 756 mmHg 33%
    17:00 +37°C° 0 mm 5 mps 756 mmHg 39%
    18:00 +35°C° 0 mm 4 mps 756 mmHg 46%
    19:00 +33°C° 0 mm 3 mps 757 mmHg 53%
    20:00 +31°C° 0 mm 3 mps 757 mmHg 56%
    21:00 +31°C° 0 mm 3 mps 758 mmHg 59%
    22:00 +30°C° 0 mm 2 mps 758 mmHg 63%
    23:00 +30°C° 0 mm 2 mps 758 mmHg 66%

    3 March, Tuesday

    Time Temperature Precipitation Wind Pressure Humidity
    00:00 +29°C° 0 mm 2 mps 758 mmHg 69%
    01:00 +29°C° 0 mm 2 mps 758 mmHg 72%
    02:00 +28°C° 0 mm 2 mps 758 mmHg 73%
    03:00 +28°C° 0 mm 2 mps 757 mmHg 73%
    04:00 +28°C° 0 mm 2 mps 757 mmHg 73%
    05:00 +28°C° 0 mm 2 mps 758 mmHg 70%
    06:00 +28°C° 0 mm 3 mps 758 mmHg 67%
    07:00 +29°C° 0 mm 3 mps 759 mmHg 64%
    08:00 +30°C° 0 mm 3 mps 759 mmHg 58%
    09:00 +32°C° 0 mm 2 mps 759 mmHg 52%
    10:00 +34°C° 0 mm 2 mps 759 mmHg 46%
    11:00 +36°C° 0 mm 3 mps 758 mmHg 43%
    12:00 +37°C° 0 mm 3 mps 758 mmHg 40%
    13:00 +38°C° 0 mm 4 mps 757 mmHg 38%
    14:00 +37°C° 0 mm 4 mps 757 mmHg 42%
    15:00 +37°C° 0 mm 4 mps 757 mmHg 47%
    16:00 +36°C° 0 mm 4 mps 756 mmHg 51%
    17:00 +34°C° 0 mm 3 mps 756 mmHg 55%
    18:00 +33°C° 0 mm 3 mps 757 mmHg 59%
    19:00 +31°C° 0 mm 3 mps 757 mmHg 63%
    20:00 +30°C° 0 mm 3 mps 757 mmHg 65%
    21:00 +30°C° 0 mm 3 mps 758 mmHg 68%
    22:00 +29°C° 0 mm 3 mps 758 mmHg 70%
    23:00 +29°C° 0 mm 2 mps 758 mmHg 72%

    4 March, Wednesday

    Time Temperature Precipitation Wind Pressure Humidity
    00:00 +28°C° 0 mm 2 mps 758 mmHg 73%
    01:00 +28°C° 0 mm 1 mps 758 mmHg 75%
    02:00 +27°C° 0 mm 1 mps 758 mmHg 76%
    03:00 +27°C° 0 mm 1 mps 758 mmHg 78%
    04:00 +27°C° 0 mm 1 mps 757 mmHg 79%
    05:00 +27°C° 0 mm 2 mps 758 mmHg 77%
    06:00 +28°C° 0 mm 2 mps 758 mmHg 76%
    07:00 +28°C° 0 mm 2 mps 759 mmHg 74%
    08:00 +30°C° 0 mm 2 mps 759 mmHg 66%
    09:00 +33°C° 0 mm 3 mps 759 mmHg 59%
    10:00 +35°C° 0 mm 3 mps 759 mmHg 51%
    11:00 +36°C° 0 mm 3 mps 758 mmHg 49%
    12:00 +36°C° 0 mm 4 mps 758 mmHg 48%
    13:00 +37°C° 0 mm 4 mps 757 mmHg 47%
    14:00 +37°C° 0 mm 4 mps 757 mmHg 48%
    15:00 +36°C° 0 mm 4 mps 756 mmHg 50%
    16:00 +35°C° 0 mm 3 mps 756 mmHg 52%
    17:00 +34°C° 0 mm 3 mps 757 mmHg 58%
    18:00 +31°C° 0 mm 3 mps 757 mmHg 64%
    19:00 +30°C° 0 mm 3 mps 757 mmHg 70%
    20:00 +29°C° 0 mm 3 mps 758 mmHg 72%
    21:00 +29°C° 0 mm 2 mps 758 mmHg 74%
    22:00 +28°C° 0 mm 2 mps 759 mmHg 76%
    23:00 +28°C° 0 mm 2 mps 758 mmHg 77%
    Show more